Simultaneous Nadir Overpasses (SNOs) Predictions

Prediction of SNOs between AURA and NPP Satellite Orbit:

Table of predicted SNOs for the next 14.0 days since TLE Epoch: 6/21/2019
Index Date (AURA) Time (AURA) Lat,Lon (AURA) SZA (AURA ) Date (NPP) Time (NPP) Lat,Lon (NPP) SZA (NPP ) Distance(km) Time Diff (sec)
1 06/23/2019 19:08:29 79.39, 148.88 69.65 06/23/2019 19:07:57 79.40, 149.01 69.64 2.90 32
2 06/23/2019 19:57:51 -79.55, -42.36 110.60 06/23/2019 19:58:37 -79.54, -42.50 110.61 2.96 46
3 06/26/2019 11:24:55 79.43, -94.97 69.67 06/26/2019 11:24:51 79.43, -94.92 69.67 0.98 4
4 06/26/2019 12:14:16 -79.67, 74.35 110.69 06/26/2019 12:15:29 -79.67, 74.41 110.75 1.38 73
5 06/29/2019 02:52:02 -79.25,-147.90 109.93 06/29/2019 02:51:08 -79.25,-147.90 109.90 0.13 54
6 06/29/2019 03:41:21 79.51, 21.43 69.70 06/29/2019 03:41:45 79.50, 21.40 69.69 0.71 24
7 07/01/2019 19:08:28 -79.33, -31.53 109.86 07/01/2019 19:08:02 -79.32, -31.59 109.83 1.44 26
8 07/01/2019 19:57:47 79.58, 137.81 69.77 07/01/2019 19:58:39 79.57, 137.72 69.75 2.12 52
9 07/04/2019 10:36:42 76.04, -97.89 74.57 07/04/2019 10:35:29 76.22, -99.06 74.77 36.80 73




NCC Satellite Simultaneous Nadir Overpasses (SNOs) Prediction Service
